THORAD AGENA D DEB, 5026

Orbit data source: Space-Track

THORAD AGENA D DEB, 5026 is space debris in SSO originally from a launch on Wed, 08 Apr 1970 UTC launched from the Air Force Western Test Range (AFWTR). Debris objects in space refer to the collection of defunct objects orbiting the Earth. Examples of debris include non-operational satellites, rocket bodies, and fragments generated from explosions, collisions, or faulty payload assembly.

Loading next visibility...
Identifier
5026, 1970-025JA
Orbit
SSO
Country
Flag of USUS
Related business
Manufacturer
Unknown
Mission
Spacecraft
Bus & Motor
Unknown
Mass
Unknown
Launch date (UTC)
1970-04-08 (56 years ago)
Launch vehicle
Unknown
Launch site
Air Force Western Test Range (AFWTR)
Object type
Payload
Rocket body
Debris
Shape & HBR
Unknown shape, 0.1 m
Radar Cross Section
Medium (>0.1 m² and <1 m²)

Expand to show TLE details & history
Last TLE update: 3 days ago

TLE from 3 days ago
0 THORAD AGENA D DEB
1 05026U 70025JA  26170.67340973  .00000924  00000-0  97056-3 0  9997
2 05026 100.1865  78.8984 0036329  72.9995 358.1187 13.77681906784936
Epoch: 2026-06-19T16:09Z
TLE epoch observation values (Epoch: 2026-06-19T16:09:42.600Z)
Latitude
68.7033°
Longitude
-98.72126°
Altitude
957.221 km
Speed
7.393 km/s
True Right ascension
03h 26m 25s
True Declination
68° 35' 23"
Sunlit
Object was in daylight at epoch
Visualization orbit readout
Latitude
Unknown
Longitude
Unknown
Altitude
Unknown
Speed
Unknown
Apparent Right ascension
Unknown
Apparent Declination
Unknown
Sunlit
N/A
Visualization observer readout
Local Sidereal Time
07:11:38
Azimuth
Unknown
Elevation
Unknown
Doppler factor
Unknown
Orbital elements
Apogee altitude
996.104 km
Perigee altitude
942.718 km
Semi-major axis
7,347.548 km
Eccentricity
0.00363
Inclination
100.1865°
RAAN
78.8984°
Arg. of periapsis
72.9995°
True anomaly
358.10497°
Mean anomaly
358.1187°
Eccentric anomaly
358.11184°
Mean motion
3.44611 °/min
Orbital period
104.47 mins
BSTAR
0.00097056
Loading maneuver chart data...
Computing Atmospheric mass density...

Documentation

Showing up to 5 results
|